Time,TemperatureF,DewpointF,PressureIn,WindDirection,WindDirectionDegrees,WindSpeedMPH,WindSpeedGustMPH,Humidity,HourlyPrecipIn,Conditions,Clouds,dailyrainin,SoftwareType,DateUTC
2013-05-26 00:01:00,39.2,29.6,28.30,WSW,245,0.0,0.0,68,0.00,,,7.29,WUHU216DAVISWMX,2013-05-26 04:01:00,
2013-05-26 00:06:00,39.1,29.9,28.29,WSW,245,0.0,0.0,69,0.00,,,7.29,WUHU216DAVISWMX,2013-05-26 04:06:00,
2013-05-26 00:11:00,38.5,30.0,28.29,WSW,245,0.0,0.0,71,0.00,,,7.29,WUHU216DAVISWMX,2013-05-26 04:11:00,
2013-05-26 00:16:00,38.1,30.3,28.29,WSW,245,0.0,0.0,73,0.00,,,7.29,WUHU216DAVISWMX,2013-05-26 04:16:00,
2013-05-26 00:21:00,37.7,30.5,28.29,WSW,245,0.0,0.0,75,0.00,,,7.29,WUHU216DAVISWMX,2013-05-26 04:21:00,
2013-05-26 00:26:00,37.3,30.5,28.29,WSW,245,0.0,0.0,76,0.00,,,7.29,WUHU216DAVISWMX,2013-05-26 04:26:00,
2013-05-26 00:31:00,37.0,30.2,28.29,WSW,245,0.0,0.0,76,0.00,,,7.29,WUHU216DAVISWMX,2013-05-26 04:31:00,
2013-05-26 00:36:00,36.8,30.3,28.29,WSW,245,0.0,0.0,77,0.00,,,7.29,WUHU216DAVISWMX,2013-05-26 04:36:00,
2013-05-26 00:41:00,36.6,30.4,28.29,WSW,245,0.0,0.0,78,0.00,,,7.29,WUHU216DAVISWMX,2013-05-26 04:41:00,
2013-05-26 00:46:00,36.5,30.3,28.29,WSW,245,0.0,0.0,78,0.00,,,7.29,WUHU216DAVISWMX,2013-05-26 04:46:00,
2013-05-26 00:51:00,36.2,30.0,28.29,WSW,245,0.0,0.0,78,0.00,,,7.29,WUHU216DAVISWMX,2013-05-26 04:51:00,
2013-05-26 00:56:00,36.1,30.2,28.29,WSW,245,0.0,0.0,79,0.00,,,7.29,WUHU216DAVISWMX,2013-05-26 04:56:00,
2013-05-26 01:01:00,35.8,29.9,28.29,WSW,245,0.0,0.0,79,0.00,,,7.29,WUHU216DAVISWMX,2013-05-26 05:01:00,
2013-05-26 01:06:00,35.7,30.1,28.29,WSW,245,0.0,0.0,80,0.00,,,7.29,WUHU216DAVISWMX,2013-05-26 05:06:00,
2013-05-26 01:11:00,35.7,29.8,28.30,WSW,245,0.0,0.0,79,0.00,,,7.29,WUHU216DAVISWMX,2013-05-26 05:11:00,
2013-05-26 01:16:00,35.5,29.7,28.30,WSW,245,0.0,0.0,79,0.00,,,7.29,WUHU216DAVISWMX,2013-05-26 05:16:00,
2013-05-26 01:21:00,35.5,30.0,28.29,WSW,245,0.0,0.0,80,0.00,,,7.29,WUHU216DAVISWMX,2013-05-26 05:21:00,
2013-05-26 01:26:00,35.3,29.8,28.30,WSW,245,0.0,0.0,80,0.00,,,7.29,WUHU216DAVISWMX,2013-05-26 05:26:00,
2013-05-26 01:31:00,35.0,29.5,28.29,WSW,245,0.0,0.0,80,0.00,,,7.29,WUHU216DAVISWMX,2013-05-26 05:31:00,
2013-05-26 01:36:00,34.7,29.5,28.29,WSW,245,0.0,0.0,81,0.00,,,7.29,WUHU216DAVISWMX,2013-05-26 05:36:00,
2013-05-26 01:41:00,34.6,29.7,28.29,WSW,245,0.0,0.0,82,0.00,,,7.29,WUHU216DAVISWMX,2013-05-26 05:41:00,
2013-05-26 01:46:00,34.4,29.5,28.29,WSW,245,0.0,0.0,82,0.00,,,7.29,WUHU216DAVISWMX,2013-05-26 05:46:00,
2013-05-26 01:51:00,34.2,29.3,28.29,WSW,245,0.0,0.0,82,0.00,,,7.29,WUHU216DAVISWMX,2013-05-26 05:51:00,
2013-05-26 01:56:00,34.2,29.6,28.29,WSW,245,0.0,0.0,83,0.00,,,7.29,WUHU216DAVISWMX,2013-05-26 05:56:00,
2013-05-26 02:01:00,34.2,29.6,28.29,WSW,245,0.0,0.0,83,0.00,,,7.29,WUHU216DAVISWMX,2013-05-26 06:01:00,
2013-05-26 02:06:00,34.0,29.4,28.29,WSW,245,0.0,0.0,83,0.00,,,7.29,WUHU216DAVISWMX,2013-05-26 06:06:00,
2013-05-26 02:11:00,33.9,29.3,28.29,WSW,245,0.0,0.0,83,0.00,,,7.29,WUHU216DAVISWMX,2013-05-26 06:11:00,
2013-05-26 02:16:00,33.9,29.3,28.29,WSW,245,0.0,0.0,83,0.00,,,7.29,WUHU216DAVISWMX,2013-05-26 06:16:00,
2013-05-26 02:21:00,33.9,29.3,28.29,WSW,245,0.0,0.0,83,0.00,,,7.29,WUHU216DAVISWMX,2013-05-26 06:21:00,
2013-05-26 02:26:00,33.7,29.4,28.29,WSW,245,0.0,0.0,84,0.00,,,7.29,WUHU216DAVISWMX,2013-05-26 06:26:00,
2013-05-26 02:31:00,33.6,29.0,28.29,WSW,245,0.0,0.0,83,0.00,,,7.29,WUHU216DAVISWMX,2013-05-26 06:31:00,
2013-05-26 02:36:00,33.6,29.3,28.29,WSW,245,0.0,0.0,84,0.00,,,7.29,WUHU216DAVISWMX,2013-05-26 06:36:00,
2013-05-26 02:41:00,33.7,29.4,28.29,WSW,245,0.0,0.0,84,0.00,,,7.29,WUHU216DAVISWMX,2013-05-26 06:41:00,
2013-05-26 02:46:00,33.8,29.5,28.29,WSW,245,0.0,0.0,84,0.00,,,7.29,WUHU216DAVISWMX,2013-05-26 06:46:00,
2013-05-26 02:51:00,33.8,29.5,28.29,WSW,245,0.0,0.0,84,0.00,,,7.29,WUHU216DAVISWMX,2013-05-26 06:51:00,
2013-05-26 02:56:00,33.9,29.3,28.29,WSW,245,0.0,0.0,83,0.00,,,7.29,WUHU216DAVISWMX,2013-05-26 06:56:00,
2013-05-26 03:01:00,33.8,29.2,28.29,WSW,245,0.0,0.0,83,0.00,,,7.29,WUHU216DAVISWMX,2013-05-26 07:01:00,
2013-05-26 03:06:00,33.8,29.2,28.29,WSW,245,0.0,0.0,83,0.00,,,7.29,WUHU216DAVISWMX,2013-05-26 07:06:00,
2013-05-26 03:11:00,33.6,29.0,28.29,WSW,245,0.0,0.0,83,0.00,,,7.29,WUHU216DAVISWMX,2013-05-26 07:11:00,
2013-05-26 03:16:00,33.6,29.0,28.29,WSW,245,0.0,0.0,83,0.00,,,7.29,WUHU216DAVISWMX,2013-05-26 07:16:00,
2013-05-26 03:21:00,33.5,28.9,28.29,WSW,245,0.0,0.0,83,0.00,,,7.29,WUHU216DAVISWMX,2013-05-26 07:21:00,
2013-05-26 03:26:00,33.4,29.1,28.29,WSW,245,0.0,0.0,84,0.00,,,7.29,WUHU216DAVISWMX,2013-05-26 07:26:00,
2013-05-26 03:31:00,33.1,28.8,28.29,WSW,245,0.0,1.0,84,0.00,,,7.29,WUHU216DAVISWMX,2013-05-26 07:31:00,
2013-05-26 03:36:00,33.7,29.4,28.29,WSW,245,0.0,1.0,84,0.00,,,7.29,WUHU216DAVISWMX,2013-05-26 07:36:00,
2013-05-26 03:41:00,33.8,29.5,28.29,WSW,245,0.0,0.0,84,0.00,,,7.29,WUHU216DAVISWMX,2013-05-26 07:41:00,
2013-05-26 03:46:00,33.9,29.3,28.29,WSW,245,0.0,0.0,83,0.00,,,7.29,WUHU216DAVISWMX,2013-05-26 07:46:00,
2013-05-26 03:51:00,34.1,29.2,28.29,WSW,245,0.0,0.0,82,0.00,,,7.29,WUHU216DAVISWMX,2013-05-26 07:51:00,
2013-05-26 03:56:00,34.1,29.2,28.29,WSW,245,0.0,0.0,82,0.00,,,7.29,WUHU216DAVISWMX,2013-05-26 07:56:00,
2013-05-26 04:01:00,33.9,29.0,28.29,WSW,245,0.0,0.0,82,0.00,,,7.29,WUHU216DAVISWMX,2013-05-26 08:01:00,
2013-05-26 04:06:00,33.8,29.2,28.29,WSW,245,0.0,0.0,83,0.00,,,7.29,WUHU216DAVISWMX,2013-05-26 08:06:00,
2013-05-26 04:11:00,33.6,29.0,28.29,WSW,245,0.0,3.0,83,0.00,,,7.29,WUHU216DAVISWMX,2013-05-26 08:11:00,
2013-05-26 04:16:00,33.7,29.1,28.29,WSW,245,0.0,3.0,83,0.00,,,7.29,WUHU216DAVISWMX,2013-05-26 08:16:00,
2013-05-26 04:21:00,33.6,29.3,28.29,WSW,245,0.0,0.0,84,0.00,,,7.29,WUHU216DAVISWMX,2013-05-26 08:21:00,
2013-05-26 04:26:00,33.4,29.1,28.29,WSW,245,0.0,0.0,84,0.00,,,7.29,WUHU216DAVISWMX,2013-05-26 08:26:00,
2013-05-26 04:31:00,33.4,29.1,28.29,WSW,245,0.0,0.0,84,0.00,,,7.29,WUHU216DAVISWMX,2013-05-26 08:31:00,
2013-05-26 04:36:00,33.5,29.2,28.29,WSW,245,0.0,1.0,84,0.00,,,7.29,WUHU216DAVISWMX,2013-05-26 08:36:00,
2013-05-26 04:41:00,33.5,29.2,28.29,WSW,245,0.0,1.0,84,0.00,,,7.29,WUHU216DAVISWMX,2013-05-26 08:41:00,
2013-05-26 04:46:00,33.4,29.1,28.29,WSW,245,0.0,0.0,84,0.00,,,7.29,WUHU216DAVISWMX,2013-05-26 08:46:00,
2013-05-26 04:51:00,33.2,29.2,28.29,WSW,245,0.0,0.0,85,0.00,,,7.29,WUHU216DAVISWMX,2013-05-26 08:51:00,
2013-05-26 04:56:00,33.2,29.2,28.29,WSW,245,0.0,0.0,85,0.00,,,7.29,WUHU216DAVISWMX,2013-05-26 08:56:00,
2013-05-26 05:01:00,33.2,28.9,28.30,WSW,245,0.0,1.0,84,0.00,,,7.29,WUHU216DAVISWMX,2013-05-26 09:01:00,
2013-05-26 05:06:00,33.2,29.2,28.30,WSW,245,0.0,1.0,85,0.00,,,7.29,WUHU216DAVISWMX,2013-05-26 09:06:00,
2013-05-26 05:11:00,33.1,28.8,28.30,WSW,245,0.0,0.0,84,0.00,,,7.29,WUHU216DAVISWMX,2013-05-26 09:11:00,
2013-05-26 05:16:00,33.0,29.0,28.30,WSW,245,0.0,0.0,85,0.00,,,7.29,WUHU216DAVISWMX,2013-05-26 09:16:00,
2013-05-26 05:21:00,32.8,28.8,28.30,WSW,246,0.0,0.0,85,0.00,,,7.29,WUHU216DAVISWMX,2013-05-26 09:21:00,
2013-05-26 05:26:00,32.6,28.6,28.30,WSW,246,0.0,0.0,85,0.00,,,7.29,WUHU216DAVISWMX,2013-05-26 09:26:00,
2013-05-26 05:31:00,32.3,28.3,28.30,WSW,246,0.0,0.0,85,0.00,,,7.29,WUHU216DAVISWMX,2013-05-26 09:31:00,
2013-05-26 05:36:00,32.0,27.7,28.30,WSW,246,0.0,0.0,84,0.00,,,7.29,WUHU216DAVISWMX,2013-05-26 09:36:00,
2013-05-26 05:41:00,31.7,27.4,28.30,WSW,246,0.0,0.0,84,0.00,,,7.29,WUHU216DAVISWMX,2013-05-26 09:41:00,
2013-05-26 05:46:00,31.3,27.0,28.30,WSW,246,0.0,0.0,84,0.00,,,7.29,WUHU216DAVISWMX,2013-05-26 09:46:00,
2013-05-26 05:51:00,31.1,27.4,28.30,WSW,246,0.0,0.0,86,0.00,,,7.29,WUHU216DAVISWMX,2013-05-26 09:51:00,
2013-05-26 05:56:00,31.0,27.3,28.31,WSW,246,0.0,0.0,86,0.00,,,7.29,WUHU216DAVISWMX,2013-05-26 09:56:00,
2013-05-26 06:01:00,30.8,27.4,28.30,WSW,246,0.0,0.0,87,0.00,,,7.29,WUHU216DAVISWMX,2013-05-26 10:01:00,
2013-05-26 06:06:00,30.7,27.5,28.30,WSW,246,0.0,0.0,88,0.00,,,7.29,WUHU216DAVISWMX,2013-05-26 10:06:00,
2013-05-26 06:11:00,30.7,27.5,28.31,WSW,246,0.0,0.0,88,0.00,,,7.29,WUHU216DAVISWMX,2013-05-26 10:11:00,
2013-05-26 06:16:00,30.7,27.5,28.31,WSW,246,0.0,0.0,88,0.00,,,7.29,WUHU216DAVISWMX,2013-05-26 10:16:00,
2013-05-26 06:21:00,30.9,28.0,28.31,WSW,246,0.0,0.0,89,0.00,,,7.29,WUHU216DAVISWMX,2013-05-26 10:21:00,
2013-05-26 06:26:00,30.9,28.0,28.31,WSW,246,0.0,0.0,89,0.00,,,7.29,WUHU216DAVISWMX,2013-05-26 10:26:00,
2013-05-26 06:31:00,31.2,28.6,28.31,WSW,246,0.0,0.0,90,0.00,,,7.29,WUHU216DAVISWMX,2013-05-26 10:31:00,
2013-05-26 06:36:00,31.4,28.5,28.31,WSW,246,0.0,0.0,89,0.00,,,7.29,WUHU216DAVISWMX,2013-05-26 10:36:00,
2013-05-26 06:41:00,31.6,29.0,28.31,WSW,246,0.0,0.0,90,0.00,,,7.29,WUHU216DAVISWMX,2013-05-26 10:41:00,
2013-05-26 06:46:00,32.2,29.3,28.31,WSW,246,0.0,0.0,89,0.00,,,7.29,WUHU216DAVISWMX,2013-05-26 10:46:00,
2013-05-26 06:51:00,32.9,30.0,28.32,WSW,246,0.0,0.0,89,0.00,,,7.29,WUHU216DAVISWMX,2013-05-26 10:51:00,
2013-05-26 06:56:00,33.5,30.6,28.32,WSW,246,0.0,0.0,89,0.00,,,7.29,WUHU216DAVISWMX,2013-05-26 10:56:00,
2013-05-26 07:01:00,34.1,30.9,28.32,WSW,246,0.0,0.0,88,0.00,,,7.29,WUHU216DAVISWMX,2013-05-26 11:01:00,
2013-05-26 07:07:00,34.4,30.6,28.32,WSW,246,0.0,0.0,86,0.00,,,7.29,WUHU216DAVISWMX,2013-05-26 11:07:00,
2013-05-26 07:12:00,34.9,30.5,28.32,WSW,246,0.0,0.0,84,0.00,,,7.29,WUHU216DAVISWMX,2013-05-26 11:12:00,
2013-05-26 07:17:00,35.1,30.4,28.32,WSW,246,0.0,3.0,83,0.00,,,7.29,WUHU216DAVISWMX,2013-05-26 11:17:00,
2013-05-26 07:22:00,35.4,30.4,28.32,WSW,246,0.0,3.0,82,0.00,,,7.29,WUHU216DAVISWMX,2013-05-26 11:22:00,
2013-05-26 07:27:00,35.7,30.4,28.32,WSW,246,0.0,0.0,81,0.00,,,7.29,WUHU216DAVISWMX,2013-05-26 11:27:00,
2013-05-26 07:32:00,35.9,30.3,28.33,WSW,246,0.0,0.0,80,0.00,,,7.29,WUHU216DAVISWMX,2013-05-26 11:32:00,
2013-05-26 07:37:00,36.4,30.8,28.32,WSW,241,1.0,3.0,80,0.00,,,7.29,WUHU216DAVISWMX,2013-05-26 11:37:00,
2013-05-26 07:42:00,36.6,30.4,28.33,SW,219,4.0,6.0,78,0.00,,,7.29,WUHU216DAVISWMX,2013-05-26 11:42:00,
2013-05-26 07:47:00,36.9,30.4,28.33,SW,221,0.0,7.0,77,0.00,,,7.29,WUHU216DAVISWMX,2013-05-26 11:47:00,
2013-05-26 07:52:00,37.1,30.3,28.33,SW,221,0.0,8.0,76,0.00,,,7.29,WUHU216DAVISWMX,2013-05-26 11:52:00,
2013-05-26 07:57:00,37.2,30.1,28.33,WSW,240,3.0,8.0,75,0.00,,,7.29,WUHU216DAVISWMX,2013-05-26 11:57:00,
2013-05-26 08:02:00,37.4,29.9,28.34,SW,229,1.0,9.0,74,0.00,,,7.29,WUHU216DAVISWMX,2013-05-26 12:02:00,
2013-05-26 08:07:00,37.6,30.1,28.33,SW,229,4.0,9.0,74,0.00,,,7.29,WUHU216DAVISWMX,2013-05-26 12:07:00,
2013-05-26 08:12:00,37.8,30.0,28.33,SW,216,0.0,10.0,73,0.00,,,7.29,WUHU216DAVISWMX,2013-05-26 12:12:00,
2013-05-26 08:17:00,38.2,30.4,28.33,SW,221,0.0,10.0,73,0.00,,,7.29,WUHU216DAVISWMX,2013-05-26 12:17:00,
2013-05-26 08:22:00,38.5,30.7,28.33,SSW,206,5.0,8.0,73,0.00,,,7.29,WUHU216DAVISWMX,2013-05-26 12:22:00,
2013-05-26 08:27:00,38.8,30.3,28.34,WSW,256,6.0,8.0,71,0.00,,,7.29,WUHU216DAVISWMX,2013-05-26 12:27:00,
2013-05-26 08:32:00,39.2,30.7,28.33,WSW,239,0.0,11.0,71,0.00,,,7.29,WUHU216DAVISWMX,2013-05-26 12:32:00,
2013-05-26 08:37:00,39.4,30.5,28.33,West,259,0.0,11.0,70,0.00,,,7.29,WUHU216DAVISWMX,2013-05-26 12:37:00,
2013-05-26 08:42:00,39.4,30.9,28.33,WSW,246,0.0,9.0,71,0.00,,,7.29,WUHU216DAVISWMX,2013-05-26 12:42:00,
2013-05-26 08:47:00,39.9,31.0,28.33,SW,229,6.0,9.0,70,0.00,,,7.29,WUHU216DAVISWMX,2013-05-26 12:47:00,
2013-05-26 08:52:00,40.2,31.3,28.33,SW,234,0.0,9.0,70,0.00,,,7.29,WUHU216DAVISWMX,2013-05-26 12:52:00,
2013-05-26 08:57:00,40.8,31.1,28.33,SSW,210,0.0,6.0,68,0.00,,,7.29,WUHU216DAVISWMX,2013-05-26 12:57:00,
2013-05-26 09:02:00,40.9,31.2,28.33,SW,218,0.0,6.0,68,0.00,,,7.29,WUHU216DAVISWMX,2013-05-26 13:02:00,
2013-05-26 09:07:00,41.2,31.5,28.33,SW,223,2.0,8.0,68,0.00,,,7.29,WUHU216DAVISWMX,2013-05-26 13:07:00,
2013-05-26 09:12:00,41.8,31.4,28.33,SW,222,3.0,8.0,66,0.00,,,7.29,WUHU216DAVISWMX,2013-05-26 13:12:00,
2013-05-26 09:17:00,42.0,31.5,28.33,WSW,240,5.0,7.0,66,0.00,,,7.29,WUHU216DAVISWMX,2013-05-26 13:17:00,
2013-05-26 09:22:00,42.2,32.1,28.33,SSW,212,7.0,10.0,67,0.00,,,7.29,WUHU216DAVISWMX,2013-05-26 13:22:00,
2013-05-26 09:27:00,42.9,32.4,28.33,SW,234,11.0,11.0,66,0.00,,,7.29,WUHU216DAVISWMX,2013-05-26 13:27:00,
2013-05-26 09:32:00,43.3,32.8,28.33,West,278,4.0,11.0,66,0.00,,,7.29,WUHU216DAVISWMX,2013-05-26 13:32:00,
2013-05-26 09:37:00,44.2,33.3,28.33,SW,227,2.0,13.0,65,0.00,,,7.29,WUHU216DAVISWMX,2013-05-26 13:37:00,
2013-05-26 09:42:00,44.4,32.3,28.33,West,270,13.0,13.0,62,0.00,,,7.29,WUHU216DAVISWMX,2013-05-26 13:42:00,
2013-05-26 09:47:00,44.7,33.0,28.33,West,261,4.0,13.0,63,0.00,,,7.29,WUHU216DAVISWMX,2013-05-26 13:47:00,
2013-05-26 09:52:00,45.2,33.0,28.32,NW,307,0.0,11.0,62,0.00,,,7.29,WUHU216DAVISWMX,2013-05-26 13:52:00,
2013-05-26 09:57:00,45.4,32.0,28.33,West,275,6.0,15.0,59,0.00,,,7.29,WUHU216DAVISWMX,2013-05-26 13:57:00,
2013-05-26 10:02:00,45.6,31.7,28.33,West,268,14.0,17.0,58,0.00,,,7.29,WUHU216DAVISWMX,2013-05-26 14:02:00,
2013-05-26 10:07:00,45.8,32.4,28.33,West,262,9.0,17.0,59,0.00,,,7.29,WUHU216DAVISWMX,2013-05-26 14:07:00,
2013-05-26 10:12:00,45.9,32.0,28.33,WSW,253,7.0,13.0,58,0.00,,,7.29,WUHU216DAVISWMX,2013-05-26 14:12:00,
2013-05-26 10:17:00,46.3,32.4,28.33,West,263,7.0,13.0,58,0.00,,,7.29,WUHU216DAVISWMX,2013-05-26 14:17:00,
2013-05-26 10:22:00,46.5,32.6,28.33,SW,222,6.0,13.0,58,0.00,,,7.29,WUHU216DAVISWMX,2013-05-26 14:22:00,
2013-05-26 10:27:00,47.1,32.3,28.33,WSW,258,4.0,13.0,56,0.00,,,7.29,WUHU216DAVISWMX,2013-05-26 14:27:00,
2013-05-26 10:32:00,46.9,32.1,28.33,WNW,282,3.0,11.0,56,0.00,,,7.29,WUHU216DAVISWMX,2013-05-26 14:32:00,
2013-05-26 10:37:00,47.3,31.5,28.33,WNW,282,9.0,13.0,54,0.00,,,7.29,WUHU216DAVISWMX,2013-05-26 14:37:00,
2013-05-26 10:42:00,47.4,31.6,28.33,WNW,283,8.0,13.0,54,0.00,,,7.29,WUHU216DAVISWMX,2013-05-26 14:42:00,
2013-05-26 10:47:00,47.3,31.0,28.33,NNW,339,7.0,14.0,53,0.00,,,7.29,WUHU216DAVISWMX,2013-05-26 14:47:00,
2013-05-26 10:52:00,47.4,31.1,28.33,West,272,12.0,14.0,53,0.00,,,7.29,WUHU216DAVISWMX,2013-05-26 14:52:00,
2013-05-26 10:57:00,47.1,31.3,28.33,West,261,7.0,12.0,54,0.00,,,7.29,WUHU216DAVISWMX,2013-05-26 14:57:00,
2013-05-26 11:02:00,47.2,31.4,28.33,West,268,6.0,10.0,54,0.00,,,7.29,WUHU216DAVISWMX,2013-05-26 15:02:00,
2013-05-26 11:07:00,47.6,31.8,28.33,WNW,297,4.0,11.0,54,0.00,,,7.29,WUHU216DAVISWMX,2013-05-26 15:07:00,
2013-05-26 11:12:00,48.6,31.3,28.33,WSW,256,6.0,12.0,51,0.00,,,7.29,WUHU216DAVISWMX,2013-05-26 15:12:00,
2013-05-26 11:17:00,48.4,30.6,28.33,WNW,284,5.0,12.0,50,0.00,,,7.29,WUHU216DAVISWMX,2013-05-26 15:17:00,
2013-05-26 11:22:00,48.9,30.5,28.34,West,273,9.0,9.0,49,0.00,,,7.29,WUHU216DAVISWMX,2013-05-26 15:22:00,
2013-05-26 11:27:00,49.1,29.7,28.34,West,268,13.0,13.0,47,0.00,,,7.29,WUHU216DAVISWMX,2013-05-26 15:27:00,
2013-05-26 11:32:00,48.9,27.8,28.34,West,279,8.0,18.0,44,0.00,,,7.29,WUHU216DAVISWMX,2013-05-26 15:32:00,
2013-05-26 11:37:00,48.5,28.0,28.34,West,273,6.0,18.0,45,0.00,,,7.29,WUHU216DAVISWMX,2013-05-26 15:37:00,
2013-05-26 11:42:00,48.9,28.4,28.34,NW,310,3.0,14.0,45,0.00,,,7.29,WUHU216DAVISWMX,2013-05-26 15:42:00,
2013-05-26 11:47:00,49.0,27.3,28.34,NW,311,5.0,16.0,43,0.00,,,7.29,WUHU216DAVISWMX,2013-05-26 15:47:00,
2013-05-26 11:52:00,48.9,27.2,28.34,NW,305,3.0,16.0,43,0.00,,,7.29,WUHU216DAVISWMX,2013-05-26 15:52:00,
2013-05-26 11:57:00,49.2,28.1,28.34,WNW,292,4.0,10.0,44,0.00,,,7.29,WUHU216DAVISWMX,2013-05-26 15:57:00,
2013-05-26 12:02:00,49.8,28.1,28.33,NW,317,7.0,14.0,43,0.00,,,7.29,WUHU216DAVISWMX,2013-05-26 16:02:00,
2013-05-26 12:07:00,51.5,29.6,28.33,WNW,283,6.0,17.0,43,0.00,,,7.29,WUHU216DAVISWMX,2013-05-26 16:07:00,
2013-05-26 12:12:00,51.6,29.1,28.33,WNW,286,13.0,18.0,42,0.00,,,7.29,WUHU216DAVISWMX,2013-05-26 16:12:00,
2013-05-26 12:17:00,51.5,29.6,28.33,NW,305,6.0,18.0,43,0.00,,,7.29,WUHU216DAVISWMX,2013-05-26 16:17:00,
2013-05-26 12:22:00,52.1,30.1,28.33,WNW,303,0.0,12.0,43,0.00,,,7.29,WUHU216DAVISWMX,2013-05-26 16:22:00,
2013-05-26 12:27:00,52.5,29.9,28.33,NW,307,0.0,9.0,42,0.00,,,7.29,WUHU216DAVISWMX,2013-05-26 16:27:00,
2013-05-26 12:32:00,52.2,30.8,28.33,NW,319,7.0,15.0,44,0.00,,,7.29,WUHU216DAVISWMX,2013-05-26 16:32:00,
2013-05-26 12:37:00,52.1,30.7,28.33,NNW,336,4.0,15.0,44,0.00,,,7.29,WUHU216DAVISWMX,2013-05-26 16:37:00,
2013-05-26 12:42:00,52.3,31.5,28.33,North,354,0.0,12.0,45,0.00,,,7.29,WUHU216DAVISWMX,2013-05-26 16:42:00,
2013-05-26 12:47:00,52.8,31.4,28.33,West,264,5.0,13.0,44,0.00,,,7.29,WUHU216DAVISWMX,2013-05-26 16:47:00,
2013-05-26 12:52:00,52.6,32.3,28.33,NNW,341,2.0,13.0,46,0.00,,,7.29,WUHU216DAVISWMX,2013-05-26 16:52:00,
2013-05-26 12:57:00,53.1,30.5,28.33,NNW,333,5.0,11.0,42,0.00,,,7.29,WUHU216DAVISWMX,2013-05-26 16:57:00,
2013-05-26 13:02:00,53.3,30.6,28.33,NNW,329,0.0,14.0,42,0.00,,,7.29,WUHU216DAVISWMX,2013-05-26 17:02:00,
2013-05-26 13:07:00,53.8,31.1,28.33,West,270,12.0,14.0,42,0.00,,,7.29,WUHU216DAVISWMX,2013-05-26 17:07:00,
2013-05-26 13:12:00,54.2,31.5,28.33,NW,312,0.0,14.0,42,0.00,,,7.29,WUHU216DAVISWMX,2013-05-26 17:12:00,
2013-05-26 13:17:00,53.9,30.6,28.33,WNW,292,7.0,12.0,41,0.00,,,7.29,WUHU216DAVISWMX,2013-05-26 17:17:00,
2013-05-26 13:22:00,54.1,31.4,28.32,NNW,328,0.0,12.0,42,0.00,,,7.29,WUHU216DAVISWMX,2013-05-26 17:22:00,
2013-05-26 13:27:00,54.4,29.8,28.33,NW,322,9.0,14.0,39,0.00,,,7.29,WUHU216DAVISWMX,2013-05-26 17:27:00,
2013-05-26 13:32:00,54.0,30.0,28.32,NNW,345,4.0,16.0,40,0.00,,,7.29,WUHU216DAVISWMX,2013-05-26 17:32:00,
2013-05-26 13:37:00,54.5,32.3,28.32,West,265,4.0,16.0,43,0.00,,,7.29,WUHU216DAVISWMX,2013-05-26 17:37:00,
2013-05-26 13:42:00,53.9,31.8,28.32,West,273,5.0,9.0,43,0.00,,,7.29,WUHU216DAVISWMX,2013-05-26 17:42:00,
2013-05-26 13:47:00,54.5,31.7,28.32,West,276,8.0,10.0,42,0.00,,,7.29,WUHU216DAVISWMX,2013-05-26 17:47:00,
2013-05-26 13:52:00,54.1,31.4,28.32,WNW,289,5.0,16.0,42,0.00,,,7.29,WUHU216DAVISWMX,2013-05-26 17:52:00,
2013-05-26 13:57:00,54.0,33.0,28.32,West,277,6.0,16.0,45,0.00,,,7.29,WUHU216DAVISWMX,2013-05-26 17:57:00,
2013-05-26 14:02:00,54.1,31.4,28.32,WNW,292,5.0,14.0,42,0.00,,,7.29,WUHU216DAVISWMX,2013-05-26 18:02:00,
2013-05-26 14:07:00,53.8,31.7,28.32,West,276,4.0,14.0,43,0.00,,,7.29,WUHU216DAVISWMX,2013-05-26 18:07:00,
2013-05-26 14:12:00,54.5,32.3,28.31,West,263,9.0,14.0,43,0.00,,,7.29,WUHU216DAVISWMX,2013-05-26 18:12:00,
2013-05-26 14:17:00,54.9,32.1,28.32,West,272,10.0,14.0,42,0.00,,,7.29,WUHU216DAVISWMX,2013-05-26 18:17:00,
2013-05-26 14:22:00,54.3,31.5,28.31,West,274,9.0,20.0,42,0.00,,,7.29,WUHU216DAVISWMX,2013-05-26 18:22:00,
2013-05-26 14:27:00,54.5,31.7,28.31,WNW,296,7.0,20.0,42,0.00,,,7.29,WUHU216DAVISWMX,2013-05-26 18:27:00,
2013-05-26 14:32:00,54.9,32.1,28.31,NW,309,5.0,13.0,42,0.00,,,7.29,WUHU216DAVISWMX,2013-05-26 18:32:00,
2013-05-26 14:37:00,54.9,31.5,28.31,WSW,239,11.0,14.0,41,0.00,,,7.29,WUHU216DAVISWMX,2013-05-26 18:37:00,
2013-05-26 14:43:00,54.7,31.3,28.32,WSW,256,13.0,14.0,41,0.00,,,7.29,WUHU216DAVISWMX,2013-05-26 18:43:00,
2013-05-26 14:48:00,55.0,30.9,28.31,West,274,6.0,18.0,40,0.00,,,7.29,WUHU216DAVISWMX,2013-05-26 18:48:00,
2013-05-26 14:52:00,55.0,30.3,28.32,NW,312,7.0,18.0,39,0.00,,,7.29,WUHU216DAVISWMX,2013-05-26 18:52:00,
2013-05-26 14:57:00,55.5,31.4,28.32,WNW,292,0.0,17.0,40,0.00,,,7.29,WUHU216DAVISWMX,2013-05-26 18:57:00,
2013-05-26 15:03:00,55.8,31.7,28.32,NNW,332,4.0,13.0,40,0.00,,,7.29,WUHU216DAVISWMX,2013-05-26 19:03:00,
2013-05-26 15:08:00,56.1,31.3,28.32,West,271,11.0,13.0,39,0.00,,,7.29,WUHU216DAVISWMX,2013-05-26 19:08:00,
2013-05-26 15:13:00,55.7,30.9,28.31,SW,234,9.0,15.0,39,0.00,,,7.29,WUHU216DAVISWMX,2013-05-26 19:13:00,
2013-05-26 15:18:00,55.8,29.7,28.31,WNW,294,9.0,16.0,37,0.00,,,7.29,WUHU216DAVISWMX,2013-05-26 19:18:00,
2013-05-26 15:23:00,55.8,31.0,28.31,NW,307,7.0,17.0,39,0.00,,,7.29,WUHU216DAVISWMX,2013-05-26 19:23:00,
2013-05-26 15:28:00,56.0,30.5,28.31,WNW,293,3.0,17.0,38,0.00,,,7.29,WUHU216DAVISWMX,2013-05-26 19:28:00,
2013-05-26 15:33:00,56.4,31.6,28.31,West,261,6.0,11.0,39,0.00,,,7.29,WUHU216DAVISWMX,2013-05-26 19:33:00,
2013-05-26 15:38:00,56.9,32.0,28.31,West,273,4.0,11.0,39,0.00,,,7.29,WUHU216DAVISWMX,2013-05-26 19:38:00,
2013-05-26 15:43:00,56.5,32.3,28.31,WNW,289,2.0,18.0,40,0.00,,,7.29,WUHU216DAVISWMX,2013-05-26 19:43:00,
2013-05-26 15:48:00,56.7,31.8,28.31,West,264,2.0,18.0,39,0.00,,,7.29,WUHU216DAVISWMX,2013-05-26 19:48:00,
2013-05-26 15:53:00,56.6,31.1,28.30,WSW,257,0.0,14.0,38,0.00,,,7.29,WUHU216DAVISWMX,2013-05-26 19:53:00,
2013-05-26 15:58:00,56.9,31.4,28.31,NNW,344,8.0,14.0,38,0.00,,,7.29,WUHU216DAVISWMX,2013-05-26 19:58:00,
2013-05-26 16:03:00,56.9,32.0,28.30,WNW,285,4.0,11.0,39,0.00,,,7.29,WUHU216DAVISWMX,2013-05-26 20:03:00,
2013-05-26 16:08:00,57.0,31.4,28.30,West,263,4.0,12.0,38,0.00,,,7.29,WUHU216DAVISWMX,2013-05-26 20:08:00,
2013-05-26 16:13:00,56.2,32.0,28.30,WNW,287,4.0,16.0,40,0.00,,,7.29,WUHU216DAVISWMX,2013-05-26 20:13:00,
2013-05-26 16:18:00,56.2,31.4,28.30,WNW,290,7.0,16.0,39,0.00,,,7.29,WUHU216DAVISWMX,2013-05-26 20:18:00,
2013-05-26 16:23:00,56.8,31.9,28.30,WNW,287,7.0,14.0,39,0.00,,,7.29,WUHU216DAVISWMX,2013-05-26 20:23:00,
2013-05-26 16:28:00,56.5,31.6,28.30,WNW,299,3.0,13.0,39,0.00,,,7.29,WUHU216DAVISWMX,2013-05-26 20:28:00,
2013-05-26 16:33:00,56.8,31.9,28.30,WNW,284,15.0,19.0,39,0.00,,,7.29,WUHU216DAVISWMX,2013-05-26 20:33:00,
2013-05-26 16:38:00,56.6,31.7,28.30,WNW,289,0.0,19.0,39,0.00,,,7.29,WUHU216DAVISWMX,2013-05-26 20:38:00,
2013-05-26 16:43:00,56.7,31.8,28.30,West,269,0.0,13.0,39,0.00,,,7.29,WUHU216DAVISWMX,2013-05-26 20:43:00,
2013-05-26 16:48:00,56.7,30.5,28.30,West,276,0.0,18.0,37,0.00,,,7.29,WUHU216DAVISWMX,2013-05-26 20:48:00,
2013-05-26 16:53:00,57.0,30.8,28.30,NW,312,0.0,18.0,37,0.00,,,7.29,WUHU216DAVISWMX,2013-05-26 20:53:00,
2013-05-26 16:58:00,57.5,31.9,28.30,WNW,287,4.0,9.0,38,0.00,,,7.29,WUHU216DAVISWMX,2013-05-26 20:58:00,
2013-05-26 17:03:00,57.7,32.1,28.29,WSW,252,10.0,13.0,38,0.00,,,7.29,WUHU216DAVISWMX,2013-05-26 21:03:00,
2013-05-26 17:08:00,57.2,31.6,28.30,West,274,11.0,16.0,38,0.00,,,7.29,WUHU216DAVISWMX,2013-05-26 21:08:00,
2013-05-26 17:13:00,57.0,31.4,28.29,NW,316,11.0,16.0,38,0.00,,,7.29,WUHU216DAVISWMX,2013-05-26 21:13:00,
2013-05-26 17:18:00,57.1,32.2,28.29,WNW,299,4.0,14.0,39,0.00,,,7.29,WUHU216DAVISWMX,2013-05-26 21:18:00,
2013-05-26 17:23:00,57.3,32.4,28.29,NNW,335,2.0,12.0,39,0.00,,,7.29,WUHU216DAVISWMX,2013-05-26 21:23:00,
2013-05-26 17:28:00,57.5,32.5,28.29,WNW,285,6.0,13.0,39,0.00,,,7.29,WUHU216DAVISWMX,2013-05-26 21:28:00,
2013-05-26 17:33:00,57.3,33.0,28.29,West,276,3.0,13.0,40,0.00,,,7.29,WUHU216DAVISWMX,2013-05-26 21:33:00,
2013-05-26 17:38:00,57.4,33.1,28.29,WNW,303,0.0,10.0,40,0.00,,,7.29,WUHU216DAVISWMX,2013-05-26 21:38:00,
2013-05-26 17:43:00,57.6,33.3,28.29,WNW,290,0.0,12.0,40,0.00,,,7.29,WUHU216DAVISWMX,2013-05-26 21:43:00,
2013-05-26 17:48:00,57.6,32.6,28.29,West,264,7.0,14.0,39,0.00,,,7.29,WUHU216DAVISWMX,2013-05-26 21:48:00,
2013-05-26 17:53:00,57.6,33.3,28.29,NNE,18,3.0,14.0,40,0.00,,,7.29,WUHU216DAVISWMX,2013-05-26 21:53:00,
2013-05-26 17:58:00,57.3,32.4,28.29,West,281,11.0,12.0,39,0.00,,,7.29,WUHU216DAVISWMX,2013-05-26 21:58:00,
2013-05-26 18:03:00,57.4,33.1,28.29,NNW,334,4.0,12.0,40,0.00,,,7.29,WUHU216DAVISWMX,2013-05-26 22:03:00,
2013-05-26 18:08:00,57.6,32.6,28.29,NNW,329,6.0,10.0,39,0.00,,,7.29,WUHU216DAVISWMX,2013-05-26 22:08:00,
2013-05-26 18:13:00,57.3,33.0,28.29,West,260,8.0,11.0,40,0.00,,,7.29,WUHU216DAVISWMX,2013-05-26 22:13:00,
2013-05-26 18:18:00,57.3,33.0,28.29,West,277,5.0,13.0,40,0.00,,,7.29,WUHU216DAVISWMX,2013-05-26 22:18:00,
2013-05-26 18:23:00,57.0,32.1,28.29,NNW,339,0.0,13.0,39,0.00,,,7.29,WUHU216DAVISWMX,2013-05-26 22:23:00,
2013-05-26 18:28:00,56.9,32.6,28.29,WNW,286,5.0,9.0,40,0.00,,,7.29,WUHU216DAVISWMX,2013-05-26 22:28:00,
2013-05-26 18:33:00,56.6,32.4,28.29,West,280,8.0,18.0,40,0.00,,,7.29,WUHU216DAVISWMX,2013-05-26 22:33:00,
2013-05-26 18:38:00,56.4,32.8,28.29,WNW,288,7.0,18.0,41,0.00,,,7.29,WUHU216DAVISWMX,2013-05-26 22:38:00,
2013-05-26 18:43:00,56.4,32.2,28.29,West,268,6.0,9.0,40,0.00,,,7.29,WUHU216DAVISWMX,2013-05-26 22:43:00,
2013-05-26 18:48:00,56.3,32.1,28.29,NW,304,7.0,12.0,40,0.00,,,7.29,WUHU216DAVISWMX,2013-05-26 22:48:00,
2013-05-26 18:53:00,56.0,31.8,28.29,WNW,283,3.0,12.0,40,0.00,,,7.29,WUHU216DAVISWMX,2013-05-26 22:53:00,
2013-05-26 18:58:00,56.0,31.2,28.29,WSW,252,1.0,12.0,39,0.00,,,7.29,WUHU216DAVISWMX,2013-05-26 22:58:00,
2013-05-26 19:03:00,55.7,31.6,28.29,West,267,12.0,15.0,40,0.00,,,7.29,WUHU216DAVISWMX,2013-05-26 23:03:00,
2013-05-26 19:08:00,55.6,31.5,28.29,West,266,6.0,15.0,40,0.00,,,7.29,WUHU216DAVISWMX,2013-05-26 23:08:00,
2013-05-26 19:13:00,55.5,32.0,28.29,West,280,8.0,15.0,41,0.00,,,7.29,WUHU216DAVISWMX,2013-05-26 23:13:00,
2013-05-26 19:18:00,55.5,32.0,28.29,West,259,5.0,15.0,41,0.00,,,7.29,WUHU216DAVISWMX,2013-05-26 23:18:00,
2013-05-26 19:23:00,55.6,32.1,28.29,West,273,5.0,10.0,41,0.00,,,7.29,WUHU216DAVISWMX,2013-05-26 23:23:00,
2013-05-26 19:28:00,55.6,32.7,28.29,WNW,299,0.0,10.0,42,0.00,,,7.29,WUHU216DAVISWMX,2013-05-26 23:28:00,
2013-05-26 19:34:00,55.6,32.7,28.29,NW,305,0.0,7.0,42,0.00,,,7.29,WUHU216DAVISWMX,2013-05-26 23:34:00,
2013-05-26 19:39:00,55.6,33.3,28.29,WNW,290,7.0,9.0,43,0.00,,,7.29,WUHU216DAVISWMX,2013-05-26 23:39:00,
2013-05-26 19:44:00,55.2,33.0,28.29,WNW,300,1.0,9.0,43,0.00,,,7.29,WUHU216DAVISWMX,2013-05-26 23:44:00,
2013-05-26 19:49:00,54.6,33.0,28.29,WSW,255,0.0,8.0,44,0.00,,,7.29,WUHU216DAVISWMX,2013-05-26 23:49:00,
2013-05-26 19:54:00,54.2,33.2,28.29,WNW,282,2.0,9.0,45,0.00,,,7.29,WUHU216DAVISWMX,2013-05-26 23:54:00,
2013-05-26 19:59:00,54.0,33.6,28.29,West,280,0.0,9.0,46,0.00,,,7.29,WUHU216DAVISWMX,2013-05-26 23:59:00,
2013-05-26 20:04:00,53.7,33.3,28.29,West,265,0.0,7.0,46,0.00,,,7.29,WUHU216DAVISWMX,2013-05-27 00:04:00,
2013-05-26 20:09:00,53.3,33.5,28.29,West,274,1.0,7.0,47,0.00,,,7.29,WUHU216DAVISWMX,2013-05-27 00:09:00,
2013-05-26 20:14:00,53.0,33.2,28.29,WSW,251,0.0,5.0,47,0.00,,,7.29,WUHU216DAVISWMX,2013-05-27 00:14:00,
2013-05-26 20:19:00,52.8,33.6,28.29,West,263,0.0,7.0,48,0.00,,,7.29,WUHU216DAVISWMX,2013-05-27 00:19:00,
2013-05-26 20:24:00,52.7,33.5,28.29,WNW,295,0.0,8.0,48,0.00,,,7.29,WUHU216DAVISWMX,2013-05-27 00:24:00,
2013-05-26 20:29:00,52.4,33.2,28.29,WNW,295,0.0,8.0,48,0.00,,,7.29,WUHU216DAVISWMX,2013-05-27 00:29:00,
2013-05-26 20:34:00,52.1,33.5,28.29,WNW,295,0.0,2.0,49,0.00,,,7.29,WUHU216DAVISWMX,2013-05-27 00:34:00,
2013-05-26 20:39:00,51.7,33.6,28.29,WNW,295,0.0,0.0,50,0.00,,,7.29,WUHU216DAVISWMX,2013-05-27 00:39:00,
2013-05-26 20:44:00,51.3,33.8,28.29,WNW,295,0.0,0.0,51,0.00,,,7.29,WUHU216DAVISWMX,2013-05-27 00:44:00,
2013-05-26 20:49:00,50.7,33.7,28.30,WNW,295,0.0,0.0,52,0.00,,,7.29,WUHU216DAVISWMX,2013-05-27 00:49:00,
2013-05-26 20:54:00,50.0,33.1,28.30,WNW,295,0.0,0.0,52,0.00,,,7.29,WUHU216DAVISWMX,2013-05-27 00:54:00,
2013-05-26 20:59:00,50.0,34.0,28.30,WNW,295,0.0,0.0,54,0.00,,,7.29,WUHU216DAVISWMX,2013-05-27 00:59:00,
2013-05-26 21:04:00,50.0,34.0,28.30,WNW,295,0.0,0.0,54,0.00,,,7.29,WUHU216DAVISWMX,2013-05-27 01:04:00,
2013-05-26 21:09:00,49.0,34.0,28.30,WNW,295,0.0,0.0,56,0.00,,,7.29,WUHU216DAVISWMX,2013-05-27 01:09:00,
2013-05-26 21:14:00,48.5,33.6,28.31,WNW,295,0.0,0.0,56,0.00,,,7.29,WUHU216DAVISWMX,2013-05-27 01:14:00,
2013-05-26 21:19:00,48.4,33.9,28.30,WNW,295,0.0,0.0,57,0.00,,,7.29,WUHU216DAVISWMX,2013-05-27 01:19:00,
2013-05-26 21:24:00,48.4,33.9,28.31,WNW,295,0.0,0.0,57,0.00,,,7.29,WUHU216DAVISWMX,2013-05-27 01:24:00,
2013-05-26 21:29:00,48.2,33.7,28.30,WNW,295,0.0,0.0,57,0.00,,,7.29,WUHU216DAVISWMX,2013-05-27 01:29:00,
2013-05-26 21:34:00,47.9,34.3,28.31,WNW,295,0.0,0.0,59,0.00,,,7.29,WUHU216DAVISWMX,2013-05-27 01:34:00,
2013-05-26 21:39:00,47.2,34.1,28.31,WNW,295,0.0,0.0,60,0.00,,,7.29,WUHU216DAVISWMX,2013-05-27 01:39:00,
2013-05-26 21:44:00,47.2,33.7,28.31,WNW,295,0.0,0.0,59,0.00,,,7.29,WUHU216DAVISWMX,2013-05-27 01:44:00,
2013-05-26 21:49:00,47.7,33.3,28.31,WNW,295,0.0,2.0,57,0.00,,,7.29,WUHU216DAVISWMX,2013-05-27 01:49:00,
2013-05-26 21:54:00,48.1,33.2,28.31,WNW,295,0.0,2.0,56,0.00,,,7.29,WUHU216DAVISWMX,2013-05-27 01:54:00,
2013-05-26 21:59:00,47.2,34.5,28.31,WNW,296,0.0,0.0,61,0.00,,,7.29,WUHU216DAVISWMX,2013-05-27 01:59:00,
2013-05-26 22:04:00,45.2,34.6,28.32,WNW,295,0.0,2.0,66,0.00,,,7.29,WUHU216DAVISWMX,2013-05-27 02:04:00,
2013-05-26 22:09:00,44.2,34.8,28.32,WNW,296,0.0,2.0,69,0.00,,,7.29,WUHU216DAVISWMX,2013-05-27 02:09:00,
2013-05-26 22:14:00,43.8,34.4,28.32,WNW,296,0.0,2.0,69,0.00,,,7.29,WUHU216DAVISWMX,2013-05-27 02:14:00,
2013-05-26 22:19:00,43.5,34.1,28.32,WNW,296,0.0,0.0,69,0.00,,,7.29,WUHU216DAVISWMX,2013-05-27 02:19:00,
2013-05-26 22:24:00,43.4,34.7,28.32,WNW,296,0.0,0.0,71,0.00,,,7.29,WUHU216DAVISWMX,2013-05-27 02:24:00,
2013-05-26 22:29:00,43.1,34.8,28.33,WNW,296,0.0,0.0,72,0.00,,,7.29,WUHU216DAVISWMX,2013-05-27 02:29:00,
2013-05-26 22:34:00,42.9,34.6,28.32,WNW,296,0.0,0.0,72,0.00,,,7.29,WUHU216DAVISWMX,2013-05-27 02:34:00,
2013-05-26 22:39:00,42.8,34.5,28.33,WNW,296,0.0,0.0,72,0.00,,,7.29,WUHU216DAVISWMX,2013-05-27 02:39:00,
2013-05-26 22:44:00,42.7,34.7,28.33,WNW,296,0.0,0.0,73,0.00,,,7.29,WUHU216DAVISWMX,2013-05-27 02:44:00,
2013-05-26 22:49:00,42.4,34.8,28.33,WNW,296,0.0,0.0,74,0.00,,,7.29,WUHU216DAVISWMX,2013-05-27 02:49:00,
2013-05-26 22:54:00,42.1,34.8,28.33,WNW,296,0.0,0.0,75,0.00,,,7.29,WUHU216DAVISWMX,2013-05-27 02:54:00,
2013-05-26 22:59:00,41.9,34.9,28.33,WNW,296,0.0,0.0,76,0.00,,,7.29,WUHU216DAVISWMX,2013-05-27 02:59:00,
2013-05-26 23:04:00,41.7,34.7,28.34,WNW,296,0.0,0.0,76,0.00,,,7.29,WUHU216DAVISWMX,2013-05-27 03:04:00,
2013-05-26 23:09:00,41.6,35.0,28.33,WNW,296,0.0,0.0,77,0.00,,,7.29,WUHU216DAVISWMX,2013-05-27 03:09:00,
2013-05-26 23:14:00,41.3,35.0,28.34,WNW,296,0.0,0.0,78,0.00,,,7.29,WUHU216DAVISWMX,2013-05-27 03:14:00,
2013-05-26 23:19:00,41.1,34.8,28.34,WNW,296,0.0,0.0,78,0.00,,,7.29,WUHU216DAVISWMX,2013-05-27 03:19:00,
2013-05-26 23:24:00,40.8,34.5,28.34,WNW,296,0.0,0.0,78,0.00,,,7.29,WUHU216DAVISWMX,2013-05-27 03:24:00,
2013-05-26 23:29:00,40.7,34.4,28.34,WNW,296,0.0,0.0,78,0.00,,,7.29,WUHU216DAVISWMX,2013-05-27 03:29:00,
2013-05-26 23:34:00,40.5,34.2,28.34,WNW,296,0.0,0.0,78,0.00,,,7.29,WUHU216DAVISWMX,2013-05-27 03:34:00,
2013-05-26 23:39:00,40.4,34.1,28.34,WNW,296,0.0,0.0,78,0.00,,,7.29,WUHU216DAVISWMX,2013-05-27 03:39:00,
2013-05-26 23:44:00,40.4,34.4,28.34,WNW,296,0.0,0.0,79,0.00,,,7.29,WUHU216DAVISWMX,2013-05-27 03:44:00,
2013-05-26 23:49:00,40.3,34.3,28.34,WNW,296,0.0,0.0,79,0.00,,,7.29,WUHU216DAVISWMX,2013-05-27 03:49:00,
2013-05-26 23:54:00,40.0,34.0,28.34,WNW,296,0.0,0.0,79,0.00,,,7.29,WUHU216DAVISWMX,2013-05-27 03:54:00,
2013-05-26 23:59:00,39.7,34.4,28.34,WNW,296,0.0,0.0,81,0.00,,,7.29,WUHU216DAVISWMX,2013-05-27 03:59:00,